Location: Bouchavesnes-Bergen
(49.9859°N, 2.9203°E)
Time: 04:36:19
(UTC+00:00)

Cosmos 1842 Rocket - Pass Details

Date: 09 March 2021
Orbit: 606 x 633 km, 82.5° (Epoch: 11 April)

Event Time Altitude Azimuth Distance (km) Brightness Sun altitude
Exits shadow 03:48:18 46° 336° (NNW) 825 4.1 -23.9°
Drops below altitude 10° 03:51:36 10° 4° (N) 1,969 6.4 -23.4°
Sets 03:53:51 0° 8° (N) 2,878 7.4 -23.1°
